Location: Mitty Observatory
(35.9148°N, 88.8847°W)
Time: 05:02:03
(UTC-06:00)

LightSail 2 - Pass Details

Date: 30 January 2021
Orbit: 688 x 705 km, 24.0° (Epoch: 09 March)

Event Time Altitude Azimuth Distance (km) Brightness Sun altitude
Exits shadow 05:24:22 15° 218° (SW) 1,814 7.0 -19.0°
Maximum altitude 05:26:35 20° 186° (S) 1,583 7.0 -18.6°
Drops below altitude 10° 05:30:08 10° 140° (SE) 2,122 8.3 -17.9°
Sets 05:33:07 0° 123° (ESE) 3,036 9.6 -17.3°
